FREGAT DEB, 45815

Orbit data source: Space-Track

FREGAT DEB, 45815 is space debris in LEO originally from a launch on Mon, 18 Jul 2011 UTC launched from the Tyuratam Missile And Space Complex (TTMTR). Debris objects in space refer to the collection of defunct objects orbiting the Earth. Examples of debris include non-operational satellites, rocket bodies, and fragments generated from explosions, collisions, or faulty payload assembly.

Loading next visibility...
Identifier
45815, 2011-037AZ
Orbit
LEO
Country
Flag of CISCIS
Related business
Manufacturer
Lavochkin
Mission
Spacecraft
Bus & Motor
Unknown
Mass
Unknown
Launch date (UTC)
2011-07-18 (14 years ago)
Launch vehicle
Unknown
Launch site
Tyuratam Missile And Space Complex (TTMTR)
Object type
Payload
Rocket body
Debris
Shape & HBR
Unknown shape, 0.1 m
Radar Cross Section
Small (<0.1 m²)

Expand to show TLE details & history
Last TLE update: 1 day ago

TLE from 1 day ago
0 FREGAT DEB
1 45815U 11037AZ  25296.84533829  .00010981  00000-0  90310-2 0  9995
2 45815  51.4401 112.2579 1604501 175.3038 186.5107 11.45371170222533
Epoch: 2025-10-23T20:17Z
TLE epoch observation values (Epoch: 2025-10-23T20:17:17.228Z)
Latitude
-0.00002°
Longitude
135.43735°
Altitude
3,263.17 km
Speed
5.896 km/s
True Right ascension
07h 29m 01s
True Declination
0° 00' 00"
Sunlit
Object was in daylight at epoch
Visualization orbit readout
Latitude
Unknown
Longitude
Unknown
Altitude
Unknown
Speed
Unknown
Apparent Right ascension
Unknown
Apparent Declination
Unknown
Sunlit
N/A
Visualization observer readout
Local Sidereal Time
20:15:23
Azimuth
Unknown
Elevation
Unknown
Doppler factor
Unknown
Orbital elements
Apogee altitude
3,269.514 km
Perigee altitude
601.641 km
Semi-major axis
8,313.715 km
Eccentricity
0.16045
Inclination
51.4401°
RAAN
112.2579°
Arg. of periapsis
175.3038°
True anomaly
184.77423°
Mean anomaly
186.5107°
Eccentric anomaly
185.61174°
Mean motion
2.86319 °/min
Orbital period
125.73 mins
BSTAR
0.009031
Loading maneuver chart data...
Computing Atmospheric mass density...
Loading historical data...
Loading historical data...
Loading historical data...
Loading historical data...
Loading historical data...
Loading historical data...
Loading historical data...

Documentation

Showing up to 5 results
|